Voltar ao catálogo

OPTUS 10

AtivoComunicaçõesGEO
NORAD 40146·PAYLOAD·🇦🇺 Australia

Lançado Sep 11, 2014 de Guiana Space Centre

Loading…

TLE

AtualizadoSource: Space-Track

Época: Sep 14, 2026, 15:10 UTC

1 40146U 14054A   26257.63218197 -.00000155  00000-0  00000-0 0  9990
2 40146   0.1128  15.0221 0002028 155.1958 206.9931  1.00271327 43927

Acompanhe OPTUS 10 em tempo real com AllMySat

Download on the App Store